When you browse on this site, cookies collect data to enhance your experience and personalize the content and advertising you see.
Visit our Privacy Policy to learn more. By continuing to use the site, you agree to this use of cookies and data.
  • In Hungary
  • List of Countries
  • For 7 days
  • Water Temperature
  • Weather Map
  • News
  • Weather Widgets
  • user-avatar
    Login

    Hourly Weather Vorotynovka

    Today, 25 January, Saturday

    Time Temperature Precipitation Wind Pressure Humidity
    00:00 -2°C° 0.5 mm 8 mps 730 mmHg 97%
    01:00 -2°C° 0.1 mm 7 mps 730 mmHg 97%
    02:00 -2°C° 0.1 mm 7 mps 730 mmHg 96%
    03:00 -2°C° 0.1 mm 7 mps 730 mmHg 96%
    04:00 -2°C° 0.2 mm 7 mps 730 mmHg 96%
    05:00 -2°C° 0.2 mm 7 mps 729 mmHg 96%
    06:00 -1°C° 0.2 mm 7 mps 729 mmHg 95%
    07:00 -2°C° 0.2 mm 7 mps 730 mmHg 95%
    08:00 -2°C° 0.2 mm 7 mps 730 mmHg 95%
    09:00 -2°C° 0.2 mm 6 mps 730 mmHg 95%
    10:00 -2°C° 0 mm 6 mps 730 mmHg 95%
    11:00 -2°C° 0 mm 6 mps 730 mmHg 95%
    12:00 -2°C° 0 mm 6 mps 730 mmHg 95%
    13:00 -2°C° 0.1 mm 7 mps 729 mmHg 95%
    14:00 -2°C° 0.1 mm 8 mps 729 mmHg 95%
    15:00 -3°C° 0.1 mm 9 mps 728 mmHg 94%
    16:00 -3°C° 0.1 mm 9 mps 728 mmHg 94%
    17:00 -3°C° 0.1 mm 9 mps 728 mmHg 94%
    18:00 -3°C° 0.1 mm 9 mps 728 mmHg 94%
    19:00 -4°C° 0.1 mm 8 mps 729 mmHg 89%
    20:00 -5°C° 0.1 mm 8 mps 729 mmHg 84%
    21:00 -4°C° 0.1 mm 7 mps 729 mmHg 79%
    22:00 -6°C° 0 mm 7 mps 730 mmHg 79%
    23:00 -6°C° 0 mm 7 mps 731 mmHg 79%

    Tomorrow, 26 January, Sunday

    Time Temperature Precipitation Wind Pressure Humidity
    00:00 -6°C° 0 mm 7 mps 731 mmHg 79%
    01:00 -6°C° 0 mm 7 mps 732 mmHg 80%
    02:00 -7°C° 0 mm 7 mps 732 mmHg 80%
    03:00 -7°C° 0 mm 7 mps 733 mmHg 80%
    04:00 -7°C° 0 mm 7 mps 733 mmHg 81%
    05:00 -6°C° 0 mm 6 mps 734 mmHg 82%
    06:00 -6°C° 0 mm 6 mps 735 mmHg 83%
    07:00 -6°C° 0 mm 6 mps 736 mmHg 84%
    08:00 -6°C° 0 mm 6 mps 737 mmHg 84%
    09:00 -7°C° 0 mm 5 mps 738 mmHg 85%
    10:00 -6°C° 0 mm 5 mps 738 mmHg 84%
    11:00 -6°C° 0 mm 5 mps 739 mmHg 83%
    12:00 -5°C° 0 mm 5 mps 739 mmHg 83%
    13:00 -5°C° 0 mm 5 mps 739 mmHg 84%
    14:00 -5°C° 0 mm 5 mps 740 mmHg 84%
    15:00 -5°C° 0 mm 5 mps 740 mmHg 85%
    16:00 -5°C° 0 mm 5 mps 739 mmHg 85%
    17:00 -5°C° 0 mm 5 mps 739 mmHg 84%
    18:00 -5°C° 0 mm 5 mps 739 mmHg 83%
    19:00 -5°C° 0 mm 6 mps 739 mmHg 84%
    20:00 -5°C° 0 mm 6 mps 738 mmHg 84%
    21:00 -4°C° 0 mm 7 mps 738 mmHg 85%
    22:00 -4°C° 0.2 mm 7 mps 738 mmHg 88%
    23:00 -5°C° 0.2 mm 8 mps 738 mmHg 90%

    Day after tomorrow, 27 January, Monday

    Time Temperature Precipitation Wind Pressure Humidity
    00:00 -4°C° 0.2 mm 8 mps 737 mmHg 93%
    01:00 -4°C° 0 mm 8 mps 737 mmHg 93%
    02:00 -4°C° 0 mm 8 mps 737 mmHg 93%
    03:00 -4°C° 0 mm 8 mps 737 mmHg 93%
    04:00 -4°C° 0 mm 8 mps 737 mmHg 93%
    05:00 -2°C° 0 mm 7 mps 737 mmHg 93%
    06:00 -2°C° 0 mm 7 mps 737 mmHg 93%
    07:00 -2°C° 0 mm 7 mps 737 mmHg 94%
    08:00 -2°C° 0 mm 7 mps 737 mmHg 95%
    09:00 -2°C° 0 mm 6 mps 738 mmHg 95%
    10:00 -2°C° 0 mm 6 mps 738 mmHg 96%
    11:00 -1°C° 0 mm 5 mps 738 mmHg 97%
    12:00 -1°C° 0 mm 5 mps 738 mmHg 98%
    13:00 -1°C° 0 mm 5 mps 739 mmHg 98%
    14:00 -1°C° 0 mm 4 mps 739 mmHg 98%
    15:00 -1°C° 0 mm 4 mps 739 mmHg 98%
    16:00 -1°C° 0 mm 4 mps 739 mmHg 98%
    17:00 -1°C° 0 mm 4 mps 739 mmHg 98%
    18:00 -1°C° 0 mm 4 mps 739 mmHg 97%
    19:00 -1°C° 0 mm 4 mps 739 mmHg 97%
    20:00 0°C° 0 mm 3 mps 739 mmHg 97%
    21:00 0°C° 0 mm 3 mps 740 mmHg 97%
    22:00 0°C° 0 mm 3 mps 739 mmHg 98%
    23:00 0°C° 0 mm 3 mps 739 mmHg 98%

    28 January, Tuesday

    Time Temperature Precipitation Wind Pressure Humidity
    00:00 0°C° 0 mm 3 mps 739 mmHg 98%
    01:00 -1°C° 0.2 mm 3 mps 739 mmHg 98%
    02:00 -1°C° 0.2 mm 3 mps 739 mmHg 98%
    03:00 -1°C° 0.2 mm 3 mps 739 mmHg 98%
    04:00 -1°C° 0 mm 3 mps 739 mmHg 98%
    05:00 -1°C° 0 mm 3 mps 738 mmHg 97%
    06:00 -1°C° 0 mm 3 mps 738 mmHg 97%
    07:00 -1°C° 0 mm 3 mps 738 mmHg 97%
    08:00 -2°C° 0 mm 3 mps 738 mmHg 97%
    09:00 -2°C° 0 mm 3 mps 738 mmHg 97%
    10:00 -1°C° 0.2 mm 3 mps 738 mmHg 97%
    11:00 -1°C° 0.2 mm 3 mps 738 mmHg 98%
    12:00 -2°C° 0.2 mm 4 mps 738 mmHg 99%
    13:00 -2°C° 0 mm 4 mps 738 mmHg 99%
    14:00 -1°C° 0 mm 3 mps 738 mmHg 99%
    15:00 0°C° 0 mm 3 mps 738 mmHg 99%
    16:00 -1°C° 0 mm 4 mps 738 mmHg 98%
    17:00 -1°C° 0 mm 4 mps 738 mmHg 98%
    18:00 -1°C° 0 mm 4 mps 738 mmHg 97%
    19:00 -2°C° 0 mm 4 mps 738 mmHg 97%
    20:00 -2°C° 0 mm 4 mps 738 mmHg 97%
    21:00 -1°C° 0 mm 3 mps 738 mmHg 97%
    22:00 -1°C° 0.1 mm 3 mps 738 mmHg 97%
    23:00 -1°C° 0.1 mm 3 mps 738 mmHg 98%

    29 January, Wednesday

    Time Temperature Precipitation Wind Pressure Humidity
    00:00 -1°C° 0.1 mm 3 mps 738 mmHg 98%
    01:00 -1°C° 0.1 mm 3 mps 737 mmHg 98%
    02:00 -1°C° 0.1 mm 3 mps 737 mmHg 97%
    03:00 -1°C° 0.1 mm 3 mps 737 mmHg 97%
    04:00 -1°C° 0 mm 3 mps 737 mmHg 97%
    05:00 -1°C° 0 mm 3 mps 737 mmHg 97%
    06:00 -1°C° 0 mm 3 mps 737 mmHg 97%
    07:00 -1°C° 0 mm 3 mps 737 mmHg 98%
    08:00 -1°C° 0 mm 3 mps 736 mmHg 98%
    09:00 -1°C° 0 mm 3 mps 736 mmHg 98%
    10:00 -1°C° 0 mm 3 mps 736 mmHg 98%
    11:00 0°C° 0 mm 3 mps 736 mmHg 99%
    12:00 -1°C° 0 mm 4 mps 736 mmHg 99%
    13:00 -1°C° 0 mm 4 mps 736 mmHg 99%
    14:00 -1°C° 0 mm 4 mps 735 mmHg 99%
    15:00 -1°C° 0 mm 4 mps 735 mmHg 99%
    16:00 -1°C° 0 mm 4 mps 734 mmHg 98%
    17:00 -1°C° 0 mm 4 mps 734 mmHg 98%
    18:00 -1°C° 0 mm 4 mps 734 mmHg 97%
    19:00 -1°C° 0.1 mm 5 mps 734 mmHg 97%
    20:00 -1°C° 0.1 mm 5 mps 733 mmHg 97%
    21:00 -2°C° 0.1 mm 6 mps 733 mmHg 97%
    22:00 -2°C° 0.1 mm 6 mps 732 mmHg 97%
    23:00 -2°C° 0.1 mm 6 mps 732 mmHg 97%

    30 January, Thursday

    Time Temperature Precipitation Wind Pressure Humidity
    00:00 -2°C° 0.1 mm 6 mps 732 mmHg 97%
    01:00 -2°C° 0.3 mm 6 mps 731 mmHg 97%
    02:00 -2°C° 0.3 mm 6 mps 730 mmHg 97%
    03:00 -2°C° 0.3 mm 6 mps 730 mmHg 97%
    04:00 -1°C° 0.4 mm 6 mps 729 mmHg 97%
    05:00 -1°C° 0.4 mm 6 mps 729 mmHg 97%
    06:00 0°C° 0.4 mm 5 mps 728 mmHg 97%
    07:00 0°C° 0.3 mm 5 mps 728 mmHg 97%
    08:00 0°C° 0.3 mm 5 mps 727 mmHg 97%
    09:00 0°C° 0.3 mm 5 mps 727 mmHg 97%
    10:00 -1°C° 1 mm 5 mps 727 mmHg 98%
    11:00 -1°C° 1 mm 4 mps 726 mmHg 98%
    12:00 -1°C° 1 mm 4 mps 726 mmHg 98%
    13:00 -1°C° 0.5 mm 5 mps 726 mmHg 97%
    14:00 -3°C° 0.5 mm 6 mps 726 mmHg 96%
    15:00 -3°C° 0.5 mm 7 mps 726 mmHg 96%
    16:00 -3°C° 0.1 mm 7 mps 727 mmHg 93%
    17:00 -3°C° 0.1 mm 7 mps 727 mmHg 91%
    18:00 -3°C° 0.1 mm 7 mps 727 mmHg 89%
    19:00 -3°C° 0.1 mm 7 mps 727 mmHg 89%
    20:00 -3°C° 0.1 mm 6 mps 727 mmHg 90%
    21:00 -4°C° 0.1 mm 6 mps 727 mmHg 91%
    22:00 -4°C° 0.1 mm 6 mps 727 mmHg 91%
    23:00 -4°C° 0.1 mm 6 mps 727 mmHg 92%
    Show more